Location: Unspecified
(43.4680°N, 87.1740°E)
Time: 21:16:07
(UTC+00:00)

Cosmos 2333 - Pass Details

Date: 17 January 2020
Orbit: 830 x 865 km, 70.9° (Epoch: 17 February)

Event Time Altitude Azimuth Distance (km) Brightness Sun altitude
Rises 12:19:38 0° 333° (NNW) 3,442 7.5 -13.8°
Reaches altitude 10° 12:22:07 10° 331° (NNW) 2,497 6.8 -14.3°
Maximum altitude 12:27:49 72° 249° (WSW) 895 4.5 -15.3°
Drops below altitude 10° 12:33:26 10° 165° (SSE) 2,456 6.6 -16.3°
Sets 12:35:52 0° 164° (SSE) 3,381 7.3 -16.7°
